Home   Weather   Davos   Past weeks

Flag for Switzerland Past Weather in Davos, Graubünden, Switzerland — Yesterday and Last 2 Weeks

Now
56 °F

Passing clouds.


Feels Like: 55 °F
Forecast: 30 / 48 °F
Wind: 6 mph from Northeast

Location: Chur

Current Time: Apr 24, 2017 at 11:56:15 am

Latest Report: Apr 24, 2017 at 11:00 am


Visibility: 16 mi

Pressure: 30.00 "Hg (24.97 "Hg at 1540m altitude)

Humidity: 47%

Dew Point: 36 °F

Location of DavosLocation

Past Weather in Davos — Graph

°F

Davos Temperature Yesterday

Maximum temperature yesterday: 58 °F (at 5:00 pm)
Minimum temperature yesterday: 40 °F (at 5:00 am)
Average temperature yesterday: 48 °F

High & Low Weather Summary for the Past Weeks

 TemperatureHumidityPressure
High74 °F (Apr 10, 4:00 pm)94% (Apr 18, 8:00 am)30.61 "Hg (Apr 18, 8:00 am)
Low29 °F (Apr 20, 6:00 am)18% (Apr 21, 4:00 pm)29.87 "Hg (Apr 13, 5:00 pm)
Average48 °F64%30.18 "Hg
* Reported Apr 9 10:00 am — Apr 24 10:00 am, Davos, Weather by CustomWeather, © 2017

Note: Actual official high and low records may vary slightly from our data, if they occured in-between our weather recording intervals... More about our weather records

Advertising

Davos Weather History for the Previous 24 Hours

Scroll right to see more
 ConditionsComfort  
Time TempWeatherWind HumidityBarometerVisibility
10:00 am
Mon, Apr 24
51 °FCool.2 mph48%30.04 "HgN/A
9:00 am47 °FCool.2 mph57%30.09 "HgN/A
8:00 am40 °FFog.3 mph70%30.13 "Hg9 mi
7:00 am39 °FChilly.2 mph75%30.14 "HgN/A
6:00 am38 °FChilly.5 mph77%30.15 "HgN/A
5:00 am39 °FClear.3 mph76%30.16 "Hg9 mi
4:00 am40 °FQuite cool.6 mph73%30.17 "HgN/A
3:00 am38 °FChilly.5 mph78%30.19 "HgN/A
2:00 am39 °FHaze.5 mph79%30.21 "Hg9 mi
1:00 am40 °FChilly.1 mph77%30.23 "HgN/A
12:00 am39 °FChilly.No wind81%30.24 "HgN/A
11:00 pm
Sun, Apr 23
44 °FClear.1 mph63%30.21 "Hg6 mi
10:00 pm47 °FCool.3 mph54%30.19 "HgN/A
9:00 pm48 °FCool.8 mph56%30.16 "HgN/A
8:00 pm49 °FPassing clouds.9 mph55%30.14 "Hg12 mi
7:00 pm52 °FCool.12 mph50%30.11 "HgN/A
6:00 pm56 °FRefreshingly cool.16 mph44%30.09 "HgN/A
5:00 pm58 °FPassing clouds.16 mph41%30.09 "Hg12 mi
4:00 pm57 °FRefreshingly cool.17 mph42%30.10 "HgN/A
3:00 pm56 °FRefreshingly cool.15 mph45%30.12 "HgN/A
2:00 pm56 °FPassing clouds.13 mph45%30.14 "Hg12 mi
1:00 pm53 °FCool.14 mph49%30.17 "HgN/A
12:00 pm51 °FCool.13 mph52%30.19 "HgN/A
11:00 am48 °FScattered clouds.10 mph56%30.22 "Hg9 mi
Weather by CustomWeather, © 2017

See weather overviewHow to use our weather pages